This is the latest recevied weather packets stored in our database for station/object K4AVM-13. If no packets are shown the sender has not sent any weather packets the latest 10 day(s).
| Time | Temp. | Humidity | Pressure | Rain* | Wind** | Luminosity | Snow |
|---|---|---|---|---|---|---|---|
| 1778170265 | 13.33° C | 79% | 1013.5 hPa | 0 mm | - | 109 W/m² | - |
| 1778169961 | 13.33° C | 78% | 1013.6 hPa | 0 mm | - | 120 W/m² | - |
| 1778169657 | 12.78° C | 79% | 1013.7 hPa | 0 mm | - | 142 W/m² | - |
| 1778169352 | 12.78° C | 80% | 1013.5 hPa | 0 mm | - | 128 W/m² | - |
| 1778169050 | 12.78° C | 80% | 1013.6 hPa | 0 mm | - | 105 W/m² | - |
| 1778168747 | 12.78° C | 80% | 1013.6 hPa | 0 mm | - | 101 W/m² | - |
| 1778168444 | 12.78° C | 79% | 1013.6 hPa | 0 mm | - | 87 W/m² | - |
| 1778168140 | 12.78° C | 79% | 1013.3 hPa | 0 mm | - | 119 W/m² | - |
| 1778167837 | 12.78° C | 79% | 1013.5 hPa | 0 mm | - | 160 W/m² | - |
| 1778167533 | 13.33° C | 78% | 1013.6 hPa | 0 mm | - | 116 W/m² | - |
| 1778167229 | 13.33° C | 77% | 1013.5 hPa | 0 mm | - | 106 W/m² | - |
| 1778166925 | 13.33° C | 76% | 1013.8 hPa | 0 mm | - | 61 W/m² | - |
| 1778166622 | 13.33° C | 77% | 1013.8 hPa | 0 mm | - | 42 W/m² | - |
| 1778166319 | 13.33° C | 79% | 1013.9 hPa | 0 mm | - | 51 W/m² | - |
| 1778166016 | 13.33° C | 79% | 1013.4 hPa | 0 mm | - | 52 W/m² | - |
| 1778165711 | 13.33° C | 80% | 1013.2 hPa | 0 mm | - | 61 W/m² | - |
| 1778165409 | 13.33° C | 79% | 1013.4 hPa | 0 mm | - | 77 W/m² | - |
| 1778165105 | 13.89° C | 79% | 1013.2 hPa | 0 mm | - | 86 W/m² | - |
| 1778164803 | 13.89° C | 78% | 1013.4 hPa | 0 mm | - | 54 W/m² | - |
| 1778164500 | 13.89° C | 79% | 1013.5 hPa | 0 mm | - | 54 W/m² | - |
| 1778164196 | 13.89° C | 80% | 1013.3 hPa | 0 mm | - | 56 W/m² | - |
| 1778163892 | 13.89° C | 78% | 1013.5 hPa | 0 mm | - | 55 W/m² | - |
| 1778163590 | 13.89° C | 79% | 1013.6 hPa | 0 mm | - | 53 W/m² | - |
| 1778163285 | 13.89° C | 79% | 1013.6 hPa | 0 mm | - | 49 W/m² | - |
| 1778162982 | 13.89° C | 79% | 1013.6 hPa | 0 mm | - | 55 W/m² | - |
* Rain latest hour (hover to see other rain measurements)
** Current wind speed in m/s (hover to see current wind gust speed)